Location: Red Rock Farm
(35.2100°N, 97.2200°W)
Time: 01:41:50
(UTC-06:00)

ISS - All Passes

Search period start: 28 February 2017 00:00
Search period end: 10 March 2017 00:00
Orbit: 399 x 408 km, 51.6° (Epoch: 28 February)

Date Brightness Start Highest point End Pass type
(mag) Time Alt. Az. Time Alt. Az. Time Alt. Az.
28 Feb - 05:53:54 10° S 05:56:26 21° SE 05:59:00 10° ENE visible
28 Feb - 07:29:48 10° W 07:32:46 30° NW 07:35:45 10° NNE daylight
28 Feb - 12:24:57 10° N 12:25:59 11° NNE 12:27:00 10° NE daylight
28 Feb - 13:59:40 10° NW 14:02:57 70° NE 14:06:11 10° SE daylight
01 Mar - 06:36:53 10° WSW 06:40:07 61° NW 06:43:24 10° NE daylight
01 Mar - 08:16:33 10° NW 08:17:09 10° NNW 08:17:46 10° NNW daylight
01 Mar - 13:07:17 10° NNW 13:10:19 34° NE 13:13:21 10° ESE daylight
01 Mar - 14:44:14 10° W 14:46:35 18° SW 14:48:56 10° S daylight
02 Mar - 05:44:21 10° SW 05:47:35 59° SE 05:50:50 10° NE visible
02 Mar - 07:22:11 10° WNW 07:24:17 16° NNW 07:26:24 10° N daylight
02 Mar - 12:15:06 10° NNW 12:17:36 20° NNE 12:20:05 10° E daylight
02 Mar - 13:51:04 10° WNW 13:54:10 39° SW 13:57:14 10° SSE daylight
03 Mar - 04:52:17 10° S 04:55:06 26° SE 04:57:55 10° ENE visible
03 Mar - 06:28:42 10° W 06:31:30 25° NW 06:34:20 10° NNE visible
03 Mar - 11:23:14 10° N 11:24:46 13° NNE 11:26:18 10° NE daylight
03 Mar - 12:58:20 10° NW 13:01:38 90° SW 13:04:54 10° SE daylight
04 Mar - 04:01:09 10° SSE 04:02:41 13° SE 04:04:14 10° E visible
04 Mar - 05:35:37 10° WSW 05:38:48 48° NW 05:42:01 10° NE visible
04 Mar - 12:05:51 10° NW 12:09:00 42° NE 12:12:09 10° ESE daylight
04 Mar - 13:43:16 10° W 13:45:10 15° SW 13:47:05 10° SSW daylight
05 Mar - 04:42:55 10° SW 04:46:11 77° SE 04:49:29 10° NE visible
05 Mar - 06:21:13 10° WNW 06:23:00 14° NNW 06:24:46 10° N visible
05 Mar - 11:13:34 10° NNW 11:16:16 23° NNE 11:18:58 10° E daylight
05 Mar - 12:49:48 10° WNW 12:52:44 30° SW 12:55:39 10° SSE daylight
06 Mar - 03:50:40 10° SSW 03:53:38 33° SE 03:56:39 10° ENE visible
06 Mar - 05:27:31 10° W 05:30:09 22° NNW 05:32:46 10° NNE visible
06 Mar - 10:21:31 10° N 10:23:26 14° NNE 10:25:20 10° ENE daylight
06 Mar - 11:56:55 10° NW 12:00:12 70° SW 12:03:28 10° SE daylight
07 Mar - 02:59:05 10° SSE 03:01:10 16° SE 03:03:17 10° E night (unlit)
07 Mar - 04:34:17 10° WSW 04:37:22 38° NW 04:40:30 10° NNE visible
07 Mar - 11:04:20 10° NW 11:07:34 52° NE 11:10:47 10° ESE daylight
07 Mar - 12:42:27 10° WSW 12:43:38 12° SW 12:44:51 10° SSW daylight
08 Mar - 03:41:25 10° SW 03:44:41 82° NW 03:47:59 10° NE visible
08 Mar - 05:20:14 10° NW 05:21:36 12° NNW 05:22:58 10° N visible
08 Mar - 10:11:56 10° NNW 10:14:49 27° NE 10:17:41 10° E daylight
08 Mar - 11:48:28 10° WNW 11:51:11 24° SW 11:53:54 10° S daylight
09 Mar - 02:48:58 10° SSW 02:52:04 43° SE 02:55:13 10° ENE night (unlit)
09 Mar - 04:26:16 10° WNW 04:28:40 19° NNW 04:31:05 10° NNE visible
09 Mar - 09:19:46 10° NNW 09:21:58 16° NNE 09:24:10 10° ENE daylight
09 Mar - 10:55:25 10° WNW 10:58:38 53° SW 11:01:50 10° SSE daylight
